Regional Weather Roundup
Issued by NWS Upton, NY

Current Version | Previous Version | Graphics & Text | Print | Product List | Glossary Off
Versions: 1 2 3 4 5 6 7 8 9 10 11 12 13 14 15 16 17 18 19 20 21 22 23 24 25 26 27 28 29 30 31 32 33 34 35 36 37 38 39 40 41 42 43 44 45 46 47 48 49 50
000 ASUS41 KOKX 281509 RWROKX REGIONAL WEATHER ROUNDUP NATIONAL WEATHER SERVICE NEW YORK NY 1100 AM EDT FRI JUL 28 2017 NOTE: "FAIR" INDICATES FEW OR NO CLOUDS BELOW 12,000 FEET WITH NO SIGNIFICANT WEATHER AND/OR OBSTRUCTIONS TO VISIBILITY. NYZ071-072-176-178-NJZ106-104-281600- NEW YORK CITY METRO AREA CITY SKY/WX TMP DP RH WIND PRES REMARKS Central Park PTSUNNY 77 68 73 CALM 29.88S Bronx Bot Gard N/A 79 66 65 S3 29.87F LaGuardia APRT PTSUNNY 78 70 76 NE7 29.85S Kennedy INTL PTSUNNY 81 70 69 VRB3 29.86S Breezy Point N/A 75 N/A N/A SE6 N/A Newark/Liberty PTSUNNY 81 69 67 N7 29.85S Teterboro MOSUNNY 80 69 69 CALM 29.85S $$ NYZ177-179-078>081-281600- LONG ISLAND NEW YORK CITY SKY/WX TMP DP RH WIND PRES REMARKS Jones Beach N/A 75 N/A N/A SE8 N/A Matinecock PT N/A 72 N/A N/A E6 N/A Farmingdale MOSUNNY 78 69 73 NE7 29.86R MacArthur/ISP CLOUDY 81 69 67 N6 29.85S Shirley PTSUNNY 81 70 69 N3 29.86S Mt Sinai Harb N/A N/A N/A N/A NE2 N/A Westhampton CLOUDY 80 68 66 N5 29.87S East Hampton CLOUDY 75 70 83 E5 29.86R Montauk N/A 75 69 81 VRB5 29.88S $$ NYZ052-065-067-281600- HUDSON VALLEY CITY SKY/WX TMP DP RH WIND PRES REMARKS White Plains CLOUDY 78 63 59 NE6 29.87S Larchmont Harb N/A 72 N/A N/A E7 N/A Croton O-T Hud N/A 75 N/A N/A MISG N/A Newburgh CLOUDY 72 70 94 VRB6 29.90S Montgomery CLOUDY 75 66 73 N3 29.88S Poughkeepsie MOSUNNY 75 65 70 N7 29.87S Albany CLOUDY 72 59 63 NE9 29.91S $$ NJZ001-105-106-008-010-013-015-019>022-104-281600- NEW JERSEY CITY SKY/WX TMP DP RH WIND PRES REMARKS Newark/Liberty PTSUNNY 81 69 67 N7 29.85S Teterboro MOSUNNY 80 69 69 CALM 29.85S Caldwell PTSUNNY 77 69 76 CALM 29.87S Somerville PTSUNNY 82 69 64 VRB6 29.84S Linden FAIR 81 66 60 CALM 29.85F Perth Amboy N/A 75 N/A N/A SE8 N/A Sussex PTSUNNY 74 67 78 NE6 29.88F Andover N/A 73 67 81 VRB5 29.89S Trenton MOSUNNY 79 71 76 E5 29.85S Millville CLOUDY 76 74 93 NE7 29.85R Atlantic City CLOUDY 81 72 74 E6 29.85R Wrightstown PTSUNNY 79 70 73 E6 29.83S Toms River PTSUNNY 79 71 76 NE7 29.86S Belmar PTSUNNY 78 70 76 E10 29.87S $$ PAZ047>061-062-071-281600- EASTERN PENNSYLVANIA CITY SKY/WX TMP DP RH WIND PRES REMARKS Philadelphia PTSUNNY 81 70 69 NE6 29.85S Allentown MOSUNNY 81 67 62 E10 29.87S Scranton CLOUDY 78 65 63 N7 29.90S $$ CTZ002-004>006-009-010-012-RIZ004-006-007-MAZ004-011-015-281600- SOUTHERN NEW ENGLAND IN CT CITY SKY/WX TMP DP RH WIND PRES REMARKS Bradley INTL CLOUDY 76 66 71 N5 29.87F Hartford CLOUDY N/A N/A N/A NE9 29.86S Danbury CLOUDY 77 66 68 NE3 29.88F Wtrbury/Oxford PTSUNNY 79 63 57 VRB5 29.89S Bridgeport MOSUNNY 78 68 71 SE7 29.86S Meriden CLOUDY 80 65 59 VRB3 29.86S New Haven PTSUNNY 80 63 55 N9 29.86S Chester PTSUNNY 79 64 61 CALM 29.87S Groton CLOUDY 80 65 59 CALM 29.85S Wilimantic CLOUDY 77 67 71 NW5 29.87S IN RI CITY SKY/WX TMP DP RH WIND PRES REMARKS Providence CLOUDY 78 67 68 VRB3 29.86S Block Island CLOUDY 77 68 73 W3 29.87S Westerly MOSUNNY 82 68 62 VRB6 29.86S IN MA CITY SKY/WX TMP DP RH WIND PRES REMARKS Boston MOSUNNY 79 62 56 W9 29.84S Worcester CLOUDY 72 60 66 W6 29.89S Westfield MOSUNNY 75 65 70 SE3 29.87S Provincetown SUNNY 74 65 73 NW7 29.85S Nantucket PTSUNNY 74 70 87 SW13 29.87R $$ ANZ330-335-338-340-345-350-353-355-281600- COASTAL MARINE OBSERVATIONS STATION/POSITION TIME SKY/WX TEMP WIND PRES VSBY WAVE AIR SEA DIR/SP/G HT/PER (UTC) (F) (DEG/KT/KT) (MB) (MI) (FT/S) NY HARB ENTRANCE 1350 72 74 40/ 4/ 6 1010.4 2/ 5 20 S FIRE ISLAND 1450 74 74 80/ 2/ 4 1010.8 2/ 8 GREAT SOUTH BAY 1430 74 78 150/ 4/ 6 N/A 23 SSW MONTAUK P 1350 73 71 1011.5 3/ 5 15 E BARNEGAT LI 1430 74 N/A 3/ 5 HUDSON CANYON 1350 72 71 130/ 8/ 8 1010.0 3/ 5 KINGS POINT 1442 75 72 40/ 5/ 8 1011.0 EXECUTION ROCKS 1445 74 120/ 6/ 6 N/A CENTRAL LI SOUND NOT AVBL EASTERN LI SOUND NOT AVBL ROBBINS REEF 1442 40/ 6/ 7 1011.5 $$ >>>>>>>>>>>>>>>>>>>>>>>>>>>> KEY <<<<<<<<<<<<<<<<<<<<<<<<<<< > < > SKY/WX - Sky Condition/Present Weather < > TMP - Temperature in Fahrenheit < > DP - Dew Point in Fahrenheit < > RH - Relative Humidity in Percent < > WIND - Direction (from) and Speed in MPH < > PRES - Mean Sea Level Pressure (inches of Hg) < > WCI - Wind Chill Index < > VSB - VISIBILITY IN MILES < > HX - HEAT INDEX < > TC - TEMPERATURE IN CELSIUS < > VRB - VARIABLE WIND DIRECTION < > < >>>>>>>>>>>>>>>>>>>>>>>>>>>> KEY <<<<<<<<<<<<<<<<<<<<<<<<<<<

USA.gov is the U.S. government's official web portal to all federal, state and local government web resources and services.